Location: Buffign�court
(47.8126°N, 6.0176°E)
Time: 15:14:53
(UTC+00:00)

SPOT 1/Viking Rocket - Pass Details

Date: 16 June 2021
Orbit: 778 x 793 km, 98.4° (Epoch: 01 August)

Event Time Altitude Azimuth Distance (km) Brightness Sun altitude
Exits shadow 21:05:00 - 185° (S) 2,608 5.8 -11.1°
Reaches altitude 10° 21:05:45 10° 187° (S) 2,325 5.6 -11.1°
Maximum altitude 21:10:40 47° 261° (W) 1,030 4.4 -11.6°
Drops below altitude 10° 21:15:39 10° 335° (NNW) 2,341 7.5 -12.1°
Sets 21:18:04 0° 341° (NNW) 3,274 8.5 -12.3°
